Overview Statistics Trail Chart Weather Telemetry Raw packets
 

This is the latest recevied weather packets stored in our database for station/object OK1TBM-13. If no packets are shown the sender has not sent any weather packets the latest 10 day(s).

<< 72 73 74 75 76 77 78 >>
Time Temp. Humidity Pressure Rain* Wind** Luminosity Snow
1787991601 20.56° C 76% 1014.9 hPa 0 mm - 671 W/m² -
1787991301 20.56° C 78% 1014.9 hPa 0 mm - 648 W/m² -
1787991001 20° C 81% 1014.9 hPa 0 mm - 585 W/m² -
1787990701 20° C 81% 1014.9 hPa 0 mm - 585 W/m² -
1787990401 19.44° C 82% 1014.6 hPa 0 mm - 610 W/m² -
1787990101 19.44° C 84% 1014.6 hPa 0 mm - 576 W/m² -
1787989800 18.33° C 88% 1014.6 hPa 0 mm - 226 W/m² -
1787989502 18.33° C 87% 1014.6 hPa 0 mm - 148 W/m² -
1787989202 18.33° C 88% 1014.6 hPa 0 mm - 169 W/m² -
1787988902 18.33° C 87% 1014.6 hPa 0 mm - 148 W/m² -
1787988601 18.33° C 88% 1014.6 hPa 0 mm - 178 W/m² -
1787988301 18.33° C 88% 1014.6 hPa 0 mm - 175 W/m² -
1787988001 18.33° C 86% 1014.2 hPa 0 mm - 106 W/m² -
1787987402 18.89° C 86% 1014.6 hPa 0 mm - 297 W/m² -
1787987101 18.89° C 87% 1014.6 hPa 0 mm - 245 W/m² -
1787986801 18.89° C 87% 1014.2 hPa 0 mm - 209 W/m² -
1787986502 18.89° C 85% 1014.2 hPa 0 mm - 319 W/m² -
1787986201 18.89° C 87% 1014.2 hPa 0 mm - 314 W/m² -
1787985901 18.89° C 90% 1014.2 hPa 0 mm - 252 W/m² -
1787985601 18.33° C 90% 1014.2 hPa 0 mm - 123 W/m² -
1787985301 18.33° C 89% 1014.2 hPa 0 mm - 150 W/m² -
1787985001 18.33° C 90% 1014.2 hPa 0 mm - 210 W/m² -
1787984701 18.33° C 92% 1014.2 hPa 0 mm - 148 W/m² -
1787984402 17.78° C 95% 1014.2 hPa 0 mm - 211 W/m² -
1787984101 17.22° C 98% 1014.2 hPa 0 mm - 150 W/m² -

* Rain latest hour (hover to see other rain measurements)
** Current wind speed in m/s (hover to see current wind gust speed)